カタログに戻る

STARLINK-30100

運用中通信VLEO
NORAD 57623·PAYLOAD·🇺🇸 United States

打ち上げ Aug 11, 2023 から Cape Canaveral Space Force Station

Loading…

次のパス (今後24時間)

TLE

最新Source: CelesTrak SupGP

元期: Sep 14, 2026, 21:59 UTC

1 57623C 23119X   26257.91645833  .00008314  00000+0  30124-3 0  2575
2 57623  42.9994  92.9572 0001351 273.9551 164.9796 15.27563040    14

AllMySatでSTARLINK-30100をリアルタイム追跡

Download on the App Store